This demonstration page uses our WeatherBlox Daily Observations layout. Learn more.

Left ArrowRight Arrow

Hourly Observations for January 3, 2019

Temp ( °F °C ) Dew Point ( °F °C ) Humidity (%) Winds ( mph kmh ) Pressure ( in mb ) Visibility ( mi km ) Precip ( " mm )
12:43 am 00:43 Cloudy with Light Rain 51 10.6 51 10.6 100 100 NNW 3 6 30.06 1018 3 5 0.12 3.05
12:53 am 00:53 Cloudy with Light Rain 51 10.6 51 10.6 100 100 VRB 3 6 30.04 1017 5 8 0.12 3.05
1:53 am 01:53 Cloudy with Light Rain 51 10.6 51 10.6 100 100 N 3 6 30.06 1018 4 6 0.02 0.51
2:06 am 02:06 Cloudy with Light Rain 51 10.6 51 10.6 100 100 Calm 30.09 1019 5 8 0.01 0.25
2:53 am 02:53 Cloudy with Light Rain 51 10.6 51 10.6 100 100 Calm 30.04 1017 10 16 0.01 0.25
3:11 am 03:11 Cloudy with Light Rain 51 10.6 51 10.6 100 100 Calm 30.09 1019 10 16 0.01 0.25
3:53 am 03:53 Cloudy 51 10.6 51 10.6 100 100 Calm 30.04 1017 9 14 0.01 0.25
4:07 am 04:07 Cloudy with Light Rain 51 10.6 51 10.6 100 100 Calm 30.09 1019 10 16 0.00 0.03
4:53 am 04:53 Cloudy 51 10.6 51 10.6 100 100 Calm 30.03 1017 10 16 0.00 0.03
5:16 am 05:16 Cloudy 51 10.6 51 10.6 100 100 Calm 30.06 1018 9 14 0.00 0.00
5:47 am 05:47 Cloudy 52 11 52 11 100 100 Calm 30.06 1018 10 16 0.00 0.00
5:53 am 05:53 Cloudy 51 10.6 51 10.6 100 100 Calm 30.03 1017 10 16 0.00 0.00
6:02 am 06:02 Cloudy with Light Rain 51 10.6 51 10.6 100 100 Calm 30.06 1018 3 5 0.00 0.03
6:53 am 06:53 Cloudy with Mist and Fog 51 10.6 51 10.6 100 100 Calm 30.01 1016 3 5 0.00 0.03
7:53 am 07:53 Cloudy with Mist and Fog 52 11.1 52 11.1 100 100 Calm 30.03 1017 3 5 0.00 0.00
8:53 am 08:53 Cloudy with Light Rain 52 11.1 52 11.1 100 100 Calm 30.06 1018 3 5 0.01 0.25
9:53 am 09:53 Cloudy with Light Rain 52 11.1 52 11.1 100 100 Calm 30.07 1018 3 5 0.03 0.76
10:53 am 10:53 Cloudy with Light Rain 53 11.7 53 11.7 100 100 ENE 3 6 30.02 1017 3 5 0.01 0.25
11:53 am 11:53 Cloudy with Mist and Fog 53 11.7 53 11.7 100 100 N 5 7 30.01 1016 3 5 0.00 0.03
12:53 pm 12:53 Cloudy with Mist and Fog 53 11.7 53 11.7 100 100 NNW 10 17 30.01 1016 3 5 0.00 0.00
1:53 pm 13:53 Cloudy with Mist and Fog 54 12.2 53 11.7 97 97 NNW 5 7 30.01 1016 6 10 0.00 0.00
2:53 pm 14:53 Cloudy 54 12.2 53 11.7 97 97 Calm 30.01 1016 10 16 0.00 0.00
3:29 pm 15:29 Cloudy 54 12.2 53 11.7 97 97 NW 5 7 30.03 1017 10 16 0.00 0.00
3:53 pm 15:53 Cloudy 54 12.2 53 11.7 97 97 Calm 30.01 1016 10 16 0.00 0.00
4:28 pm 16:28 Cloudy 55 12.8 53 11.7 93 93 Calm 30.00 1016 10 16 0.00 0.00
4:53 pm 16:53 Cloudy 55 12.8 54 12.2 96 96 Calm 29.99 1016 10 16 0.00 0.00
5:25 pm 17:25 Mostly Cloudy 54 12.2 54 12.2 100 100 Calm 30.00 1016 10 16 0.00 0.00
5:39 pm 17:39 Mostly Cloudy 54 12.2 54 12.2 100 100 Calm 30.00 1016 10 16 0.00 0.00
5:53 pm 17:53 Mostly Cloudy 54 12.2 54 12.2 100 100 Calm 30.01 1016 10 16 0.00 0.00
6:53 pm 18:53 Cloudy with Light Rain 54 12.2 54 12.2 100 100 Calm 30.01 1016 10 16 0.00 0.03
7:33 pm 19:33 Cloudy with Light Rain 53 11.7 53 11.7 100 100 Calm 30.06 1018 10 16 0.01 0.25
7:53 pm 19:53 Cloudy with Light Rain 53 11.7 53 11.7 100 100 N 3 6 30.01 1016 9 14 0.01 0.25
8:53 pm 20:53 Cloudy with Light Rain 53 11.7 53 11.7 100 100 NE 3 6 30.00 1016 8 13 0.01 0.25
9:01 pm 21:01 Cloudy with Light Rain 53 11.7 53 11.7 100 100 NNE 3 6 30.00 1016 9 14 0.00 0.03
9:53 pm 21:53 Cloudy with Light Rain 53 11.7 53 11.7 100 100 Calm 30.00 1016 7 11 0.00 0.03
10:14 pm 22:14 Cloudy with Light Rain 53 11.7 53 11.7 100 100 Calm 30.00 1016 7 11 0.01 0.25
10:35 pm 22:35 Cloudy with Light Rain 52 11.1 52 11.1 100 100 Calm 30.03 1017 2 3 0.02 0.51
10:42 pm 22:42 Cloudy with Light Rain 53 11.7 53 11.7 100 100 Calm 30.00 1016 2 3 0.02 0.51
10:46 pm 22:46 Cloudy with Light Rain 53 11.7 53 11.7 100 100 Calm 30.00 1016 3 5 0.03 0.76
10:53 pm 22:53 Cloudy with Light Rain 53 11.7 53 11.7 100 100 Calm 29.98 1015 4 6 0.03 0.76
11:10 pm 23:10 Cloudy with Light Rain 53 11.7 53 11.7 100 100 NE 3 6 29.97 1015 4 6 0.01 0.25
11:18 pm 23:18 Cloudy with Light Rain 53 11.7 53 11.7 100 100 Calm 29.97 1015 4 6 0.02 0.51
11:26 pm 23:26 Cloudy with Light Rain 53 11.7 53 11.7 100 100 Calm 29.97 1015 4 6 0.02 0.51
11:53 pm 23:53 Cloudy with Light Rain 53 11.7 53 11.7 100 100 Calm 29.98 1015 4 6 0.04 1.02

Powered by AerisWeather